Year,Month,Day,Hour,Minute,Value (Times are PST for temperature in C)
2008,06,23,00,00,9.30
2008,06,23,00,01,9.30
2008,06,23,00,02,9.20
2008,06,23,00,03,9.20
2008,06,23,00,04,9.20
2008,06,23,00,05,9.20
2008,06,23,00,06,9.20
2008,06,23,00,07,9.20
2008,06,23,00,08,9.20
2008,06,23,00,09,9.20
2008,06,23,00,10,9.20
2008,06,23,00,11,9.20
2008,06,23,00,12,9.20
2008,06,23,00,13,9.20
2008,06,23,00,14,9.20
2008,06,23,00,15,9.10
2008,06,23,00,16,9.10
2008,06,23,00,17,9.10
2008,06,23,00,18,9.10
2008,06,23,00,19,9.10
2008,06,23,00,20,9.10
2008,06,23,00,21,9.10
2008,06,23,00,22,9.00
2008,06,23,00,23,9.00
2008,06,23,00,24,9.00
2008,06,23,00,25,9.00
2008,06,23,00,26,9.00
2008,06,23,00,27,9.00
2008,06,23,00,28,8.90
2008,06,23,00,29,8.90
2008,06,23,00,30,8.90
2008,06,23,00,31,8.90
2008,06,23,00,32,8.90
2008,06,23,00,33,9.00
2008,06,23,00,34,9.00
2008,06,23,00,35,9.00
2008,06,23,00,36,9.00
2008,06,23,00,37,9.00
2008,06,23,00,38,9.00
2008,06,23,00,39,9.00
2008,06,23,00,40,9.00
2008,06,23,00,41,9.00
2008,06,23,00,42,9.00
2008,06,23,00,43,9.00
2008,06,23,00,44,9.00
2008,06,23,00,45,9.00
2008,06,23,00,46,9.00
2008,06,23,00,47,9.00
2008,06,23,00,48,9.00
2008,06,23,00,49,9.00
2008,06,23,00,50,9.00
2008,06,23,00,51,9.00
2008,06,23,00,52,9.00
2008,06,23,00,53,9.10
2008,06,23,00,54,9.10
2008,06,23,00,55,9.10
2008,06,23,00,56,9.10
2008,06,23,00,57,9.00
2008,06,23,00,58,9.00
2008,06,23,00,59,9.00
2008,06,23,01,00,9.00
2008,06,23,01,01,9.00
2008,06,23,01,02,9.00
2008,06,23,01,03,9.00
2008,06,23,01,04,9.00
2008,06,23,01,05,9.00
2008,06,23,01,06,9.00
2008,06,23,01,07,9.00
2008,06,23,01,08,9.00
2008,06,23,01,09,9.00
2008,06,23,01,10,9.00
2008,06,23,01,11,9.00
2008,06,23,01,12,9.00
2008,06,23,01,13,9.00
2008,06,23,01,14,9.00
2008,06,23,01,15,9.00
2008,06,23,01,16,9.00
2008,06,23,01,17,9.00
2008,06,23,01,18,9.00
2008,06,23,01,19,9.00
2008,06,23,01,20,9.00
2008,06,23,01,21,9.00
2008,06,23,01,22,9.00
2008,06,23,01,23,9.00
2008,06,23,01,24,9.00
2008,06,23,01,25,9.00
2008,06,23,01,26,9.00
2008,06,23,01,27,9.00
2008,06,23,01,28,9.00
2008,06,23,01,29,9.00
2008,06,23,01,30,9.00
2008,06,23,01,31,9.00
2008,06,23,01,32,9.00
2008,06,23,01,33,8.90
2008,06,23,01,34,8.90
2008,06,23,01,35,9.00
2008,06,23,01,36,9.00
2008,06,23,01,37,9.00
2008,06,23,01,38,9.00
2008,06,23,01,39,9.00
2008,06,23,01,40,9.00
2008,06,23,01,41,9.10
2008,06,23,01,42,9.10
2008,06,23,01,43,9.10
2008,06,23,01,44,9.10
2008,06,23,01,45,9.10
2008,06,23,01,46,9.00
2008,06,23,01,47,9.00
2008,06,23,01,48,9.00
2008,06,23,01,49,9.00
2008,06,23,01,50,9.00
2008,06,23,01,51,9.00
2008,06,23,01,52,9.00
2008,06,23,01,53,9.00
2008,06,23,01,54,9.00
2008,06,23,01,55,9.00
2008,06,23,01,56,9.00
2008,06,23,01,57,9.00
2008,06,23,01,58,9.00
2008,06,23,01,59,9.00
2008,06,23,02,00,9.00
2008,06,23,02,01,9.00
2008,06,23,02,02,9.00
2008,06,23,02,03,9.00
2008,06,23,02,04,9.00
2008,06,23,02,05,9.00
2008,06,23,02,06,9.00
2008,06,23,02,07,9.00
2008,06,23,02,08,9.00
2008,06,23,02,09,9.00
2008,06,23,02,10,9.00
2008,06,23,02,11,9.00
2008,06,23,02,12,9.00
2008,06,23,02,13,8.90
2008,06,23,02,14,8.90
2008,06,23,02,15,8.90
2008,06,23,02,16,8.90
2008,06,23,02,17,8.90
2008,06,23,02,18,8.90
2008,06,23,02,19,8.90
2008,06,23,02,20,8.90
2008,06,23,02,21,8.90
2008,06,23,02,22,8.90
2008,06,23,02,23,8.90
2008,06,23,02,24,8.90
2008,06,23,02,25,8.90
2008,06,23,02,26,8.80
2008,06,23,02,27,8.80
2008,06,23,02,28,8.80
2008,06,23,02,29,8.80
2008,06,23,02,30,8.80
2008,06,23,02,31,8.70
2008,06,23,02,32,8.70
2008,06,23,02,33,8.70
2008,06,23,02,34,8.70
2008,06,23,02,35,8.70
2008,06,23,02,36,8.70
2008,06,23,02,37,8.70
2008,06,23,02,38,8.70
2008,06,23,02,39,8.70
2008,06,23,02,40,8.70
2008,06,23,02,41,8.60
2008,06,23,02,42,8.60
2008,06,23,02,43,8.60
2008,06,23,02,44,8.60
2008,06,23,02,45,8.60
2008,06,23,02,46,8.60
2008,06,23,02,47,8.60
2008,06,23,02,48,8.60
2008,06,23,02,49,8.60
2008,06,23,02,50,8.60
2008,06,23,02,51,8.60
2008,06,23,02,52,8.60
2008,06,23,02,53,8.60
2008,06,23,02,54,8.60
2008,06,23,02,55,8.60
2008,06,23,02,56,8.60
2008,06,23,02,57,8.60
2008,06,23,02,58,8.60
2008,06,23,02,59,8.60
2008,06,23,03,00,8.60
2008,06,23,03,01,8.60
2008,06,23,03,02,8.60
2008,06,23,03,03,8.60
2008,06,23,03,04,8.60
2008,06,23,03,05,8.60
2008,06,23,03,06,8.60
2008,06,23,03,07,8.60
2008,06,23,03,08,8.60
2008,06,23,03,09,8.60
2008,06,23,03,10,8.60
2008,06,23,03,11,8.60
2008,06,23,03,12,8.60
2008,06,23,03,13,8.60
2008,06,23,03,14,8.60
2008,06,23,03,15,8.60
2008,06,23,03,16,8.60
2008,06,23,03,17,8.60
2008,06,23,03,18,8.60
2008,06,23,03,19,8.60
2008,06,23,03,20,8.60
2008,06,23,03,21,8.60
2008,06,23,03,22,8.60
2008,06,23,03,23,8.60
2008,06,23,03,24,8.60
2008,06,23,03,25,8.60
2008,06,23,03,26,8.60
2008,06,23,03,27,8.60
2008,06,23,03,28,8.60
2008,06,23,03,29,8.60
2008,06,23,03,30,8.60
2008,06,23,03,31,8.60
2008,06,23,03,32,8.60
2008,06,23,03,33,8.60
2008,06,23,03,34,8.60
2008,06,23,03,35,8.60
2008,06,23,03,36,8.50
2008,06,23,03,37,8.50
2008,06,23,03,38,8.50
2008,06,23,03,39,8.60
2008,06,23,03,40,8.60
2008,06,23,03,41,8.60
2008,06,23,03,42,8.60
2008,06,23,03,43,8.60
2008,06,23,03,44,8.60
2008,06,23,03,45,8.60
2008,06,23,03,46,8.50
2008,06,23,03,47,8.50
2008,06,23,03,48,8.60
2008,06,23,03,49,8.60
2008,06,23,03,50,8.60
2008,06,23,03,51,8.60
2008,06,23,03,52,8.60
2008,06,23,03,53,8.60
2008,06,23,03,54,8.60
2008,06,23,03,55,8.60
2008,06,23,03,56,8.60
2008,06,23,03,57,8.60
2008,06,23,03,58,8.60
2008,06,23,03,59,8.60
2008,06,23,04,00,8.60
2008,06,23,04,01,8.60
2008,06,23,04,02,8.70
2008,06,23,04,03,8.70
2008,06,23,04,04,8.60
2008,06,23,04,05,8.60
2008,06,23,04,06,8.60
2008,06,23,04,07,8.60
2008,06,23,04,08,8.60
2008,06,23,04,09,8.60
2008,06,23,04,10,8.60
2008,06,23,04,11,8.50
2008,06,23,04,12,8.50
2008,06,23,04,13,8.50
2008,06,23,04,14,8.50
2008,06,23,04,15,8.50
2008,06,23,04,16,8.50
2008,06,23,04,17,8.50
2008,06,23,04,18,8.50
2008,06,23,04,19,8.40
2008,06,23,04,20,8.40
2008,06,23,04,21,8.40
2008,06,23,04,22,8.40
2008,06,23,04,23,8.40
2008,06,23,04,24,8.40
2008,06,23,04,25,8.40
2008,06,23,04,26,8.40
2008,06,23,04,27,8.40
2008,06,23,04,28,8.40
2008,06,23,04,29,8.30
2008,06,23,04,30,8.30
2008,06,23,04,31,8.30
2008,06,23,04,32,8.30
2008,06,23,04,33,8.30
2008,06,23,04,34,8.30
2008,06,23,04,35,8.30
2008,06,23,04,36,8.30
2008,06,23,04,37,8.30
2008,06,23,04,38,8.30
2008,06,23,04,39,8.20
2008,06,23,04,40,8.20
2008,06,23,04,41,8.20
2008,06,23,04,42,8.20
2008,06,23,04,43,8.20
2008,06,23,04,44,8.20
2008,06,23,04,45,8.20
2008,06,23,04,46,8.20
2008,06,23,04,47,8.10
2008,06,23,04,48,8.10
2008,06,23,04,49,8.10
2008,06,23,04,50,8.00
2008,06,23,04,51,8.00
2008,06,23,04,52,8.00
2008,06,23,04,53,8.00
2008,06,23,04,54,8.00
2008,06,23,04,55,8.00
2008,06,23,04,56,8.00
2008,06,23,04,57,8.00
2008,06,23,04,58,7.90
2008,06,23,04,59,7.90
2008,06,23,05,00,7.90
2008,06,23,05,01,7.90
2008,06,23,05,02,7.90
2008,06,23,05,03,7.80
2008,06,23,05,04,7.80
2008,06,23,05,05,7.80
2008,06,23,05,06,7.80
2008,06,23,05,07,7.80
2008,06,23,05,08,7.80
2008,06,23,05,09,7.80
2008,06,23,05,10,7.80
2008,06,23,05,11,7.80
2008,06,23,05,12,7.80
2008,06,23,05,13,7.80
2008,06,23,05,14,7.80
2008,06,23,05,15,7.80
2008,06,23,05,16,7.80
2008,06,23,05,17,7.80
2008,06,23,05,18,7.80
2008,06,23,05,19,7.80
2008,06,23,05,20,7.80
2008,06,23,05,21,7.80
2008,06,23,05,22,7.80
2008,06,23,05,23,7.80
2008,06,23,05,24,7.80
2008,06,23,05,25,7.80
2008,06,23,05,26,7.80
2008,06,23,05,27,7.80
2008,06,23,05,28,7.80
2008,06,23,05,29,7.80
2008,06,23,05,30,7.80
2008,06,23,05,31,7.80
2008,06,23,05,32,7.80
2008,06,23,05,33,7.70
2008,06,23,05,34,7.70
2008,06,23,05,35,7.60
2008,06,23,05,36,7.60
2008,06,23,05,37,7.50
2008,06,23,05,38,7.40
2008,06,23,05,39,7.40
2008,06,23,05,40,7.30
2008,06,23,05,41,7.30
2008,06,23,05,42,7.30
2008,06,23,05,43,7.30
2008,06,23,05,44,7.20
2008,06,23,05,45,7.20
2008,06,23,05,46,7.20
2008,06,23,05,47,7.20
2008,06,23,05,48,7.20
2008,06,23,05,49,7.20
2008,06,23,05,50,7.20
2008,06,23,05,51,7.20
2008,06,23,05,52,7.20
2008,06,23,05,53,7.20
2008,06,23,05,54,7.20
2008,06,23,05,55,7.20
2008,06,23,05,56,7.30
2008,06,23,05,57,7.30
2008,06,23,05,58,7.30
2008,06,23,05,59,7.30
2008,06,23,06,00,7.40
2008,06,23,06,01,7.50
2008,06,23,06,02,7.60
2008,06,23,06,03,7.70
2008,06,23,06,04,7.80
2008,06,23,06,05,7.80
2008,06,23,06,06,7.80
2008,06,23,06,07,7.90
2008,06,23,06,08,7.90
2008,06,23,06,09,7.90
2008,06,23,06,10,8.00
2008,06,23,06,11,8.00
2008,06,23,06,12,8.00
2008,06,23,06,13,8.00
2008,06,23,06,14,8.10
2008,06,23,06,15,8.10
2008,06,23,06,16,8.10
2008,06,23,06,17,8.20
2008,06,23,06,18,8.20
2008,06,23,06,19,8.20
2008,06,23,06,20,8.20
2008,06,23,06,21,8.30
2008,06,23,06,22,8.30
2008,06,23,06,23,8.30
2008,06,23,06,24,8.30
2008,06,23,06,25,8.40
2008,06,23,06,26,8.40
2008,06,23,06,27,8.40
2008,06,23,06,28,8.50
2008,06,23,06,29,8.50
2008,06,23,06,30,8.50
2008,06,23,06,31,8.50
2008,06,23,06,32,8.60
2008,06,23,06,33,8.60
2008,06,23,06,34,8.60
2008,06,23,06,35,8.70
2008,06,23,06,36,8.70
2008,06,23,06,37,8.70
2008,06,23,06,38,8.70
2008,06,23,06,39,8.70
2008,06,23,06,40,8.80
2008,06,23,06,41,8.80
2008,06,23,06,42,8.80
2008,06,23,06,43,8.80
2008,06,23,06,44,8.90
2008,06,23,06,45,8.90
2008,06,23,06,46,8.90
2008,06,23,06,47,9.00
2008,06,23,06,48,9.00
2008,06,23,06,49,9.10
2008,06,23,06,50,9.10
2008,06,23,06,51,9.20
2008,06,23,06,52,9.20
2008,06,23,06,53,9.20
2008,06,23,06,54,9.20
2008,06,23,06,55,9.30
2008,06,23,06,56,9.30
2008,06,23,06,57,9.30
2008,06,23,06,58,9.40
2008,06,23,06,59,9.40
2008,06,23,07,00,9.40
2008,06,23,07,01,9.50
2008,06,23,07,02,9.50
2008,06,23,07,03,9.40
2008,06,23,07,04,9.30
2008,06,23,07,05,9.20
2008,06,23,07,06,9.10
2008,06,23,07,07,9.00
2008,06,23,07,08,8.90
2008,06,23,07,09,8.90
2008,06,23,07,10,8.90
2008,06,23,07,11,8.90
2008,06,23,07,12,8.90
2008,06,23,07,13,8.90
2008,06,23,07,14,9.00
2008,06,23,07,15,9.10
2008,06,23,07,16,9.20
2008,06,23,07,17,9.30
2008,06,23,07,18,9.40
2008,06,23,07,19,9.50
2008,06,23,07,20,9.60
2008,06,23,07,21,9.70
2008,06,23,07,22,9.70
2008,06,23,07,23,9.70
2008,06,23,07,24,9.80
2008,06,23,07,25,9.90
2008,06,23,07,26,9.90
2008,06,23,07,27,10.00
2008,06,23,07,28,10.10
2008,06,23,07,29,10.10
2008,06,23,07,30,10.20
2008,06,23,07,31,10.20
2008,06,23,07,32,10.30
2008,06,23,07,33,10.40
2008,06,23,07,34,10.40
2008,06,23,07,35,10.50
2008,06,23,07,36,10.60
2008,06,23,07,37,10.60
2008,06,23,07,38,10.70
2008,06,23,07,39,10.70
2008,06,23,07,40,10.70
2008,06,23,07,41,10.80
2008,06,23,07,42,10.80
2008,06,23,07,43,10.90
2008,06,23,07,44,10.90
2008,06,23,07,45,11.00
2008,06,23,07,46,11.10
2008,06,23,07,47,11.10
2008,06,23,07,48,11.20
2008,06,23,07,49,11.30
2008,06,23,07,50,11.40
2008,06,23,07,51,11.40
2008,06,23,07,52,11.60
2008,06,23,07,53,11.60
2008,06,23,07,54,11.60
2008,06,23,07,55,11.60
2008,06,23,07,56,11.60
2008,06,23,07,57,11.60
2008,06,23,07,58,11.60
2008,06,23,07,59,11.60
2008,06,23,08,00,11.60
2008,06,23,08,01,11.60
2008,06,23,08,02,11.60
2008,06,23,08,03,11.60
2008,06,23,08,04,11.60
2008,06,23,08,05,11.60
2008,06,23,08,06,11.60
2008,06,23,08,07,11.70
2008,06,23,08,08,11.70
2008,06,23,08,09,11.80
2008,06,23,08,10,11.80
2008,06,23,08,11,11.80
2008,06,23,08,12,11.80
2008,06,23,08,13,11.90
2008,06,23,08,14,12.00
2008,06,23,08,15,12.10
2008,06,23,08,16,12.10
2008,06,23,08,17,12.10
2008,06,23,08,18,12.10
2008,06,23,08,19,12.20
2008,06,23,08,20,12.20
2008,06,23,08,21,12.30
2008,06,23,08,22,12.30
2008,06,23,08,23,12.40
2008,06,23,08,24,12.50
2008,06,23,08,25,12.60
2008,06,23,08,26,12.60
2008,06,23,08,27,12.70
2008,06,23,08,28,12.80
2008,06,23,08,29,12.80
2008,06,23,08,30,12.80
2008,06,23,08,31,12.80
2008,06,23,08,32,12.90
2008,06,23,08,33,13.00
2008,06,23,08,34,13.00
2008,06,23,08,35,13.10
2008,06,23,08,36,13.10
2008,06,23,08,37,13.20
2008,06,23,08,38,13.20
2008,06,23,08,39,13.10
2008,06,23,08,40,13.10
2008,06,23,08,41,13.10
2008,06,23,08,42,13.10
2008,06,23,08,43,13.20
2008,06,23,08,44,13.20
2008,06,23,08,45,13.30
2008,06,23,08,46,13.30
2008,06,23,08,47,13.30
2008,06,23,08,48,13.40
2008,06,23,08,49,13.50
2008,06,23,08,50,13.60
2008,06,23,08,51,13.60
2008,06,23,08,52,13.70
2008,06,23,08,53,13.80
2008,06,23,08,54,13.80
2008,06,23,08,55,13.80
2008,06,23,08,56,13.90
2008,06,23,08,57,13.90
2008,06,23,08,58,13.90
2008,06,23,08,59,13.90
2008,06,23,09,00,13.90
2008,06,23,09,01,14.00
2008,06,23,09,02,14.10
2008,06,23,09,03,14.20
2008,06,23,09,04,14.20
2008,06,23,09,05,14.20
2008,06,23,09,06,14.30
2008,06,23,09,07,14.40
2008,06,23,09,08,14.50
2008,06,23,09,09,14.50
2008,06,23,09,10,14.60
2008,06,23,09,11,14.70
2008,06,23,09,12,14.80
2008,06,23,09,13,14.80
2008,06,23,09,14,14.70
2008,06,23,09,15,14.70
2008,06,23,09,16,14.70
2008,06,23,09,17,14.70
2008,06,23,09,18,14.60
2008,06,23,09,19,14.70
2008,06,23,09,20,14.70
2008,06,23,09,21,14.70
2008,06,23,09,22,14.70
2008,06,23,09,23,14.80
2008,06,23,09,24,14.80
2008,06,23,09,25,14.80
2008,06,23,09,26,14.80
2008,06,23,09,27,14.80
2008,06,23,09,28,14.70
2008,06,23,09,29,14.50
2008,06,23,09,30,14.40
2008,06,23,09,31,14.20
2008,06,23,09,32,14.00
2008,06,23,09,33,13.90
2008,06,23,09,34,13.80
2008,06,23,09,35,13.80
2008,06,23,09,36,13.80
2008,06,23,09,37,13.70
2008,06,23,09,38,13.80
2008,06,23,09,39,13.80
2008,06,23,09,40,13.70
2008,06,23,09,41,13.80
2008,06,23,09,42,13.80
2008,06,23,09,43,13.80
2008,06,23,09,44,13.80
2008,06,23,09,45,13.80
2008,06,23,09,46,13.80
2008,06,23,09,47,13.90
2008,06,23,09,48,14.00
2008,06,23,09,49,14.00
2008,06,23,09,50,14.10
2008,06,23,09,51,14.20
2008,06,23,09,52,14.20
2008,06,23,09,53,14.30
2008,06,23,09,54,14.30
2008,06,23,09,55,14.30
2008,06,23,09,56,14.40
2008,06,23,09,57,14.40
2008,06,23,09,58,14.40
2008,06,23,09,59,14.50
2008,06,23,10,00,14.40
2008,06,23,10,01,14.40
2008,06,23,10,02,14.40
2008,06,23,10,03,14.40
2008,06,23,10,04,14.40
2008,06,23,10,05,14.30
2008,06,23,10,06,14.30
2008,06,23,10,07,14.30
2008,06,23,10,08,14.20
2008,06,23,10,09,14.20
2008,06,23,10,10,14.20
2008,06,23,10,11,14.20
2008,06,23,10,12,14.20
2008,06,23,10,13,14.20
2008,06,23,10,14,14.20
2008,06,23,10,15,14.20
2008,06,23,10,16,14.20
2008,06,23,10,17,14.20
2008,06,23,10,18,14.20
2008,06,23,10,19,14.20
2008,06,23,10,20,14.20
2008,06,23,10,21,14.20
2008,06,23,10,22,14.20
2008,06,23,10,23,14.20
2008,06,23,10,24,14.20
2008,06,23,10,25,14.20
2008,06,23,10,26,14.10
2008,06,23,10,27,14.10
2008,06,23,10,28,14.00
2008,06,23,10,29,14.00
2008,06,23,10,30,14.10
2008,06,23,10,31,14.00
2008,06,23,10,32,14.00
2008,06,23,10,33,13.90
2008,06,23,10,34,13.90
2008,06,23,10,35,13.90
2008,06,23,10,36,13.90
2008,06,23,10,37,13.90
2008,06,23,10,38,13.80
2008,06,23,10,39,13.70
2008,06,23,10,40,13.70
2008,06,23,10,41,13.70
2008,06,23,10,42,13.70
2008,06,23,10,43,13.80
2008,06,23,10,44,13.80
2008,06,23,10,45,13.90
2008,06,23,10,46,14.00
2008,06,23,10,47,14.00
2008,06,23,10,48,14.10
2008,06,23,10,49,14.10
2008,06,23,10,50,14.20
2008,06,23,10,51,14.20
2008,06,23,10,52,14.20
2008,06,23,10,53,14.40
2008,06,23,10,54,14.50
2008,06,23,10,55,14.50
2008,06,23,10,56,14.60
2008,06,23,10,57,14.60
2008,06,23,10,58,14.60
2008,06,23,10,59,14.60
2008,06,23,11,00,14.70
2008,06,23,11,01,14.70
2008,06,23,11,02,14.70
2008,06,23,11,03,14.70
2008,06,23,11,04,14.70
2008,06,23,11,05,14.70
2008,06,23,11,06,14.80
2008,06,23,11,07,14.80
2008,06,23,11,08,14.80
2008,06,23,11,09,14.80
2008,06,23,11,10,14.90
2008,06,23,11,11,14.90
2008,06,23,11,12,14.90
2008,06,23,11,13,14.90
2008,06,23,11,14,14.90
2008,06,23,11,15,14.90
2008,06,23,11,16,14.90
2008,06,23,11,17,14.90
2008,06,23,11,18,14.90
2008,06,23,11,19,14.80
2008,06,23,11,20,14.70
2008,06,23,11,21,14.60
2008,06,23,11,22,14.60
2008,06,23,11,23,14.50
2008,06,23,11,24,14.40
2008,06,23,11,25,14.30
2008,06,23,11,26,14.30
2008,06,23,11,27,14.40
2008,06,23,11,28,14.50
2008,06,23,11,29,14.60
2008,06,23,11,30,14.50
2008,06,23,11,31,14.50
2008,06,23,11,32,14.50
2008,06,23,11,33,14.50
2008,06,23,11,34,14.50
2008,06,23,11,35,14.50
2008,06,23,11,36,14.50
2008,06,23,11,37,14.50
2008,06,23,11,38,14.60
2008,06,23,11,39,14.60
2008,06,23,11,40,14.60
2008,06,23,11,41,14.60
2008,06,23,11,42,14.60
2008,06,23,11,43,14.60
2008,06,23,11,44,14.70
2008,06,23,11,45,14.70
2008,06,23,11,46,14.60
2008,06,23,11,47,14.60
2008,06,23,11,48,14.50
2008,06,23,11,49,14.50
2008,06,23,11,50,14.50
2008,06,23,11,51,14.60
2008,06,23,11,52,14.60
2008,06,23,11,53,14.70
2008,06,23,11,54,14.80
2008,06,23,11,55,14.80
2008,06,23,11,56,14.90
2008,06,23,11,57,14.80
2008,06,23,11,58,14.80
2008,06,23,11,59,14.80
2008,06,23,12,00,14.80
2008,06,23,12,01,14.80
2008,06,23,12,02,14.80
2008,06,23,12,03,14.80
2008,06,23,12,04,14.80
2008,06,23,12,05,14.90
2008,06,23,12,06,14.90
2008,06,23,12,07,15.00
2008,06,23,12,08,14.90
2008,06,23,12,09,15.00
2008,06,23,12,10,15.00
2008,06,23,12,11,15.10
2008,06,23,12,12,15.10
2008,06,23,12,13,15.10
2008,06,23,12,14,15.10
2008,06,23,12,15,15.10
2008,06,23,12,16,15.20
2008,06,23,12,17,15.30
2008,06,23,12,18,15.30
2008,06,23,12,19,15.30
2008,06,23,12,20,15.30
2008,06,23,12,21,15.30
2008,06,23,12,22,15.30
2008,06,23,12,23,15.30
2008,06,23,12,24,15.30
2008,06,23,12,25,15.30
2008,06,23,12,26,15.30
2008,06,23,12,27,15.40
2008,06,23,12,28,15.40
2008,06,23,12,29,15.40
2008,06,23,12,30,15.40
2008,06,23,12,31,15.30
2008,06,23,12,32,15.30
2008,06,23,12,33,15.30
2008,06,23,12,34,15.30
2008,06,23,12,35,15.30
2008,06,23,12,36,15.30
2008,06,23,12,37,15.30
2008,06,23,12,38,15.30
2008,06,23,12,39,15.30
2008,06,23,12,40,15.30
2008,06,23,12,41,15.20
2008,06,23,12,42,15.20
2008,06,23,12,43,15.20
2008,06,23,12,44,15.20
2008,06,23,12,45,15.10
2008,06,23,12,46,15.10
2008,06,23,12,47,15.10
2008,06,23,12,48,15.10
2008,06,23,12,49,15.00
2008,06,23,12,50,15.00
2008,06,23,12,51,14.90
2008,06,23,12,52,14.90
2008,06,23,12,53,14.80
2008,06,23,12,54,14.80
2008,06,23,12,55,14.80
2008,06,23,12,56,14.80
2008,06,23,12,57,14.80
2008,06,23,12,58,14.90
2008,06,23,12,59,15.10
2008,06,23,13,00,15.20
2008,06,23,13,01,15.30
2008,06,23,13,02,15.40
2008,06,23,13,03,15.50
2008,06,23,13,04,15.50
2008,06,23,13,05,15.50
2008,06,23,13,06,15.60
2008,06,23,13,07,15.70
2008,06,23,13,08,15.70
2008,06,23,13,09,15.70
2008,06,23,13,10,15.70
2008,06,23,13,11,15.70
2008,06,23,13,12,15.80
2008,06,23,13,13,15.80
2008,06,23,13,14,15.90
2008,06,23,13,15,16.10
2008,06,23,13,16,16.10
2008,06,23,13,17,16.20
2008,06,23,13,18,16.30
2008,06,23,13,19,16.40
2008,06,23,13,20,16.40
2008,06,23,13,21,16.40
2008,06,23,13,22,16.40
2008,06,23,13,23,16.30
2008,06,23,13,24,16.30
2008,06,23,13,25,16.30
2008,06,23,13,26,16.30
2008,06,23,13,27,16.40
2008,06,23,13,28,16.40
2008,06,23,13,29,16.40
2008,06,23,13,30,16.50
2008,06,23,13,31,16.60
2008,06,23,13,32,16.70
2008,06,23,13,33,16.70
2008,06,23,13,34,16.70
2008,06,23,13,35,16.70
2008,06,23,13,36,16.80
2008,06,23,13,37,16.70
2008,06,23,13,38,16.70
2008,06,23,13,39,16.70
2008,06,23,13,40,16.70
2008,06,23,13,41,16.70
2008,06,23,13,42,16.70
2008,06,23,13,43,16.80
2008,06,23,13,44,16.70
2008,06,23,13,45,16.70
2008,06,23,13,46,16.80
2008,06,23,13,47,16.80
2008,06,23,13,48,17.00
2008,06,23,13,49,17.10
2008,06,23,13,50,17.30
2008,06,23,13,51,17.30
2008,06,23,13,52,17.30
2008,06,23,13,53,17.30
2008,06,23,13,54,17.30
2008,06,23,13,55,17.30
2008,06,23,13,56,17.30
2008,06,23,13,57,17.30
2008,06,23,13,58,17.30
2008,06,23,13,59,17.30
2008,06,23,14,00,17.30
2008,06,23,14,01,17.30
2008,06,23,14,02,17.30
2008,06,23,14,03,17.30
2008,06,23,14,04,17.30
2008,06,23,14,05,17.30
2008,06,23,14,06,17.30
2008,06,23,14,07,17.30
2008,06,23,14,08,17.10
2008,06,23,14,09,17.10
2008,06,23,14,10,17.10
2008,06,23,14,11,17.20
2008,06,23,14,12,17.30
2008,06,23,14,13,17.30
2008,06,23,14,14,17.30
2008,06,23,14,15,17.40
2008,06,23,14,16,17.50
2008,06,23,14,17,17.60
2008,06,23,14,18,17.60
2008,06,23,14,19,17.70
2008,06,23,14,20,17.80
2008,06,23,14,21,17.80
2008,06,23,14,22,17.80
2008,06,23,14,23,17.70
2008,06,23,14,24,17.70
2008,06,23,14,25,17.80
2008,06,23,14,26,17.90
2008,06,23,14,27,17.90
2008,06,23,14,28,18.00
2008,06,23,14,29,18.10
2008,06,23,14,30,17.90
2008,06,23,14,31,18.10
2008,06,23,14,32,18.00
2008,06,23,14,33,17.90
2008,06,23,14,34,17.90
2008,06,23,14,35,17.90
2008,06,23,14,36,17.90
2008,06,23,14,37,17.90
2008,06,23,14,38,17.90
2008,06,23,14,39,17.90
2008,06,23,14,40,18.10
2008,06,23,14,41,18.10
2008,06,23,14,42,18.20
2008,06,23,14,43,18.30
2008,06,23,14,44,18.20
2008,06,23,14,45,18.20
2008,06,23,14,46,18.20
2008,06,23,14,47,18.20
2008,06,23,14,48,18.20
2008,06,23,14,49,18.10
2008,06,23,14,50,18.10
2008,06,23,14,51,18.10
2008,06,23,14,52,18.10
2008,06,23,14,53,18.10
2008,06,23,14,54,18.10
2008,06,23,14,55,18.10
2008,06,23,14,56,18.20
2008,06,23,14,57,18.20
2008,06,23,14,58,18.30
2008,06,23,14,59,18.40
2008,06,23,15,00,18.50
2008,06,23,15,01,18.50
2008,06,23,15,02,18.40
2008,06,23,15,03,18.50
2008,06,23,15,04,18.50
2008,06,23,15,05,18.40
2008,06,23,15,06,18.40
2008,06,23,15,07,18.40
2008,06,23,15,08,18.40
2008,06,23,15,09,18.50
2008,06,23,15,10,18.60
2008,06,23,15,11,18.70
2008,06,23,15,12,18.60
2008,06,23,15,13,18.40
2008,06,23,15,14,18.30
2008,06,23,15,15,18.20
2008,06,23,15,16,18.20
2008,06,23,15,17,18.20
2008,06,23,15,18,18.20
2008,06,23,15,19,18.10
2008,06,23,15,20,18.10
2008,06,23,15,21,18.10
2008,06,23,15,22,18.00
2008,06,23,15,23,18.10
2008,06,23,15,24,18.20
2008,06,23,15,25,18.20
2008,06,23,15,26,18.30
2008,06,23,15,27,18.20
2008,06,23,15,28,18.30
2008,06,23,15,29,18.30
2008,06,23,15,30,18.30
2008,06,23,15,31,18.30
2008,06,23,15,32,18.30
2008,06,23,15,33,18.30
2008,06,23,15,34,18.30
2008,06,23,15,35,18.40
2008,06,23,15,36,18.50
2008,06,23,15,37,18.50
2008,06,23,15,38,18.50
2008,06,23,15,39,18.60
2008,06,23,15,40,18.60
2008,06,23,15,41,18.50
2008,06,23,15,42,18.50
2008,06,23,15,43,18.50
2008,06,23,15,44,18.40
2008,06,23,15,45,18.30
2008,06,23,15,46,18.20
2008,06,23,15,47,18.20
2008,06,23,15,48,18.20
2008,06,23,15,49,18.20
2008,06,23,15,50,18.20
2008,06,23,15,51,18.20
2008,06,23,15,52,18.20
2008,06,23,15,53,18.20
2008,06,23,15,54,18.20
2008,06,23,15,55,18.20
2008,06,23,15,56,18.20
2008,06,23,15,57,18.20
2008,06,23,15,58,18.20
2008,06,23,15,59,18.10
2008,06,23,16,00,18.10
2008,06,23,16,01,18.10
2008,06,23,16,02,18.10
2008,06,23,16,03,18.10
2008,06,23,16,04,18.20
2008,06,23,16,05,18.20
2008,06,23,16,06,18.20
2008,06,23,16,07,18.20
2008,06,23,16,08,18.20
2008,06,23,16,09,18.10
2008,06,23,16,10,18.10
2008,06,23,16,11,18.10
2008,06,23,16,12,18.20
2008,06,23,16,13,18.20
2008,06,23,16,14,18.20
2008,06,23,16,15,18.10
2008,06,23,16,16,18.10
2008,06,23,16,17,18.10
2008,06,23,16,18,18.10
2008,06,23,16,19,18.10
2008,06,23,16,20,18.10
2008,06,23,16,21,18.10
2008,06,23,16,22,18.00
2008,06,23,16,23,17.90
2008,06,23,16,24,17.90
2008,06,23,16,25,17.90
2008,06,23,16,26,18.10
2008,06,23,16,27,18.10
2008,06,23,16,28,18.10
2008,06,23,16,29,18.20
2008,06,23,16,30,18.30
2008,06,23,16,31,18.30
2008,06,23,16,32,18.40
2008,06,23,16,33,18.40
2008,06,23,16,34,18.40
2008,06,23,16,35,18.30
2008,06,23,16,36,18.20
2008,06,23,16,37,18.20
2008,06,23,16,38,18.20
2008,06,23,16,39,18.10
2008,06,23,16,40,18.10
2008,06,23,16,41,18.10
2008,06,23,16,42,18.00
2008,06,23,16,43,18.10
2008,06,23,16,44,18.10
2008,06,23,16,45,18.10
2008,06,23,16,46,18.10
2008,06,23,16,47,18.00
2008,06,23,16,48,17.90
2008,06,23,16,49,17.90
2008,06,23,16,50,17.90
2008,06,23,16,51,18.00
2008,06,23,16,52,18.10
2008,06,23,16,53,18.10
2008,06,23,16,54,18.10
2008,06,23,16,55,18.00
2008,06,23,16,56,17.90
2008,06,23,16,57,17.90
2008,06,23,16,58,17.90
2008,06,23,16,59,17.90
2008,06,23,17,00,18.00
2008,06,23,17,01,18.10
2008,06,23,17,02,18.10
2008,06,23,17,03,18.10
2008,06,23,17,04,18.10
2008,06,23,17,05,18.10
2008,06,23,17,06,18.10
2008,06,23,17,07,18.10
2008,06,23,17,08,18.10
2008,06,23,17,09,18.10
2008,06,23,17,10,18.10
2008,06,23,17,11,18.00
2008,06,23,17,12,17.90
2008,06,23,17,13,17.90
2008,06,23,17,14,17.90
2008,06,23,17,15,18.00
2008,06,23,17,16,18.00
2008,06,23,17,17,17.90
2008,06,23,17,18,17.90
2008,06,23,17,19,17.90
2008,06,23,17,20,17.90
2008,06,23,17,21,17.90
2008,06,23,17,22,17.90
2008,06,23,17,23,17.80
2008,06,23,17,24,17.80
2008,06,23,17,25,17.80
2008,06,23,17,26,17.80
2008,06,23,17,27,17.80
2008,06,23,17,28,17.70
2008,06,23,17,29,17.70
2008,06,23,17,30,17.70
2008,06,23,17,31,17.60
2008,06,23,17,32,17.60
2008,06,23,17,33,17.60
2008,06,23,17,34,17.70
2008,06,23,17,35,17.70
2008,06,23,17,36,17.70
2008,06,23,17,37,17.70
2008,06,23,17,38,17.70